Temp
9 9 9 9 9 9 8 8 9 10 11 11 11 11 13 16 17 18 19 19 19 19 19 19 19 19 19 19 20 20 20 19 18 19 19 20 20 19 19 19 18 16 15
9 8 8 8 8 9 9 8 9 9 10 12 12 11 11 11 11 13 13 16 16 18 18 19 19 19 19 19 19 19 19 18 18 18 18 19 19 19 19 17 16 14 14
9 8 8 8 8 7 8 8 9 9 10 10 11 11 11 11 11 11 11 11 12 12 14 15 16 17 18 18 18 18 19 17 18 17 17 18 18 18 17 15 14 14 14
9 9 8 8 8 7 7 7 7 7 8 9 10 10 10 11 11 11 11 11 12 12 12 12 13 13 14 15 16 17 18 18 18 17 16 17 17 16 15 14 14 13 12
10 9 8 7 7 7 6 6 6 5 6 7 8 8 9 10 9 10 10 10 11 11 11 12 13 13 12 13 13 14 15 16 16 16 16 16 14 13 13 13 12 11 9
10 10 9 8 7 7 6 6 5 5 5 5 6 6 7 8 9 9 8 9 9 10 11 12 13 12 13 12 12 13 13 13 13 14 15 15 14 14 13 12 11 8 4
10 9 9 8 7 7 7 6 5 5 4 4 5 5 6 6 7 7 7 7 8 8 9 10 11 13 13 13 13 13 13 12 12 12 12 12 13 12 12 12 11 9 8
9 8 7 7 7 7 7 6 5 5 4 4 4 5 5 5 6 6 7 6 7 7 8 9 10 11 11 12 12 12 12 11 12 11 11 10 10 10 10 10 10 8 6
7 6 6 6 6 6 5 5 5 4 4 4 4 3 3 4 4 5 5 5 6 7 7 7 8 9 10 10 10 10 9 10 10 10 10 9 9 10 10 10 9 6 1
5 5 5 5 5 5 4 4 3 3 2 2 2 3 3 3 3 3 4 3 4 4 5 5 6 7 8 8 9 8 7 7 7 8 6 6 7 7 9 9 8 6 2
4 5 5 5 5 4 3 2 2 1 1 1 1 1 2 2 2 2 2 2 2 2 2 2 3 4 5 4 3 4 5 5 6 6 6 6 7 7 7 7 6 6 5
3 4 5 5 4 4 3 2 1 1 1 0 1 1 1 1 1 2 2 2 2 2 1 1 2 2 2 2 4 4 4 4 4 4 6 6 5 5 5 4 5 5 5
3 4 4 4 4 2 1 1 1 0 0 0 0 1 1 1 1 1 1 1 1 1 0 1 1 1 1 1 1 3 3 3 3 4 5 5 4 3 2 2 2 2 3
3 3 3 3 1 1 1 0 0 -0 -0 -0 -0 -0 -0 -0 -0 -0 -0 -0 -0 -1 -1 -1 -1 -1 -0 1 1 2 3 2 2 3 4 3 2 1 0 1 1 1 0
2 2 2 1 0 0 -0 -0 -0 -0 -0 -0 -1 -1 -1 -1 -1 -1 -1 -1 -1 -1 -1 -2 -2 -1 -0 0 1 1 2 2 2 2 2 1 0 -0 -0 -1 -1 -1 -1
1 1 1 0 -0 -0 -1 -1 -1 -0 0 0 0 0 -0 -1 -1 -0 -0 -0 -0 -1 -2 -2 -1 -1 -1 -0 0 1 2 2 2 1 1 1 -0 -1 -1 -2 -1 -1 -2
1 1 0 -0 -0 -0 -1 -1 -1 -1 -1 -0 -0 -0 -0 -0 -0 0 0 -0 -0 -1 -2 -2 -1 -1 -1 -1 -0 0 1 2 2 1 1 -0 -1 -1 -2 -2 -2 -2 -3
0 -0 -0 -0 -1 -1 -1 -2 -2 -1 -1 -1 -1 -1 -0 -0 -0 -0 -0 -0 -1 -1 -1 -1 -1 -1 -1 -0 -0 0 1 1 1 1 0 -1 -1 -2 -2 -2 -3 -3 -3
-0 -0 -0 -1 -1 -1 -2 -2 -2 -1 -1 -1 -1 -1 -1 -1 -1 -1 -1 -1 -1 -1 -1 -1 -1 -1 -0 -0 0 0 1 1 1 0 -1 -1 -2 -2 -2 -3 -3 -3 -2
-0 -1 -0 -1 -1 -2 -2 -2 -2 -2 -2 -2 -1 -1 -1 -1 -1 -1 -1 -1 -1 -1 -1 -1 -1 -1 -0 -0 0 0 1 1 0 -0 -1 -2 -2 -2 -2 -3 -2 -2 -2
-1 -1 -1 -1 -1 -1 -2 -2 -2 -2 -2 -2 -2 -1 -1 -2 -2 -2 -1 -1 -1 -1 -1 -1 -1 -1 -0 -0 0 0 1 0 -0 -1 -1 -2 -2 -2 -2 -2 -2 -2 -3
-1 -1 -1 -1 -1 -2 -2 -2 -2 -2 -2 -2 -2 -2 -2 -2 -2 -2 -2 -2 -2 -2 -2 -2 -1 -1 -1 -0 0 0 1 -0 -1 -1 -2 -2 -2 -2 -2 -2 -3 -3 -3
-1 -1 -2 -1 -2 -2 -2 -2 -2 -2 -2 -2 -2 -2 -2 -2 -2 -2 -2 -2 -2 -2 -2 -2 -1 -1 -1 -0 -0 0 0 -0 -0 -1 -2 -2 -2 -2 -2 -3 -3 -3 -3
-1 -1 -2 -2 -2 -2 -2 -2 -2 -2 -2 -2 -2 -2 -2 -2 -2 -2 -2 -2 -3 -2 -2 -2 -1 -1 -0 -0 -0 -0 -0 -0 -0 -1 -1 -2 -2 -2 -3 -3 -3 -3 -4
-1 -2 -2 -2 -2 -2 -3 -3 -2 -2 -2 -2 -3 -3 -3 -3 -3 -2 -2 -2 -2 -2 -2 -2 -1 -1 -1 -1 -1 -1 -1 -1 -1 -1 -2 -2 -2 -3 -3 -3 -3 -4 -4
-2 -2 -2 -2 -2 -3 -3 -3 -3 -3 -3 -3 -3 -3 -3 -3 -3 -3 -3 -3 -3 -3 -2 -2 -1 -1 -1 -1 -1 -1 -1 -1 -1 -2 -2 -2 -3 -3 -4 -4 -4 -4 -4
Height
793 790 785 779 777 774 773 763 755 756 754 751 756 756 752 747 752 754 754 756 757 757 758 761 762 764 763 763 764 764 763 765 764 765 766 768 767 769 771 771 770 769 769
798 794 790 787 782 775 768 766 764 765 766 753 754 762 761 756 754 750 748 748 749 751 755 754 754 755 754 756 756 756 758 758 759 758 760 761 763 765 764 764 763 764 764
801 798 795 791 787 783 779 775 775 770 764 764 758 763 765 765 762 754 752 751 746 749 747 747 748 748 747 747 748 748 750 752 753 753 752 755 756 757 757 758 758 756 756
805 801 798 796 794 792 789 785 779 773 775 773 765 763 760 764 762 759 750 752 749 747 746 745 743 744 744 743 741 742 744 747 747 746 747 747 748 749 750 751 750 749 752
805 802 801 799 796 793 790 786 784 781 777 773 771 771 765 767 764 756 757 756 740 753 743 742 745 736 743 742 738 739 738 740 739 739 743 742 740 741 741 743 744 745 748
804 803 802 801 799 796 792 790 785 781 778 776 774 768 768 765 761 756 757 752 746 755 746 744 741 738 740 743 736 736 738 738 733 738 736 733 733 733 735 738 739 741 745
804 805 802 802 798 798 792 790 788 784 781 779 775 772 770 767 763 754 755 751 748 750 743 741 742 740 736 734 739 735 735 735 731 732 731 731 729 730 732 732 732 735 736
806 805 802 801 796 795 790 788 786 783 781 778 772 770 767 762 758 751 751 750 747 745 742 744 739 734 733 739 737 729 731 732 729 730 729 729 728 729 731 730 731 731 735
809 808 806 802 796 794 788 786 785 782 778 775 771 767 764 763 753 751 746 747 744 741 740 738 737 736 733 732 728 726 730 730 728 726 724 724 727 725 724 725 729 731 732
811 808 805 801 797 793 790 788 786 781 775 770 766 760 759 754 751 750 745 743 742 740 736 735 737 735 729 726 723 723 724 725 724 721 721 718 719 724 715 715 724 725 726
812 809 805 801 796 792 790 787 783 778 774 771 767 764 760 758 753 750 746 743 744 739 736 732 737 731 720 719 720 722 723 721 719 716 715 711 711 712 713 716 720 719 722
809 804 799 796 792 789 786 784 781 776 772 769 764 758 755 751 751 748 746 745 742 738 730 728 725 723 721 718 716 717 716 718 716 712 705 706 710 712 712 714 713 718 719
807 803 798 794 790 786 783 779 776 773 770 764 758 754 750 746 745 742 740 737 733 728 726 722 721 720 716 715 714 708 708 710 712 706 703 704 705 710 712 712 714 714 716
806 802 798 794 790 786 783 779 774 769 765 760 756 751 747 745 742 738 735 732 727 724 721 719 716 714 710 707 706 703 702 700 704 704 703 702 703 708 710 712 712 713 714
804 800 796 793 789 784 781 776 771 766 762 756 752 748 742 735 733 730 728 725 721 717 714 712 708 705 703 700 698 699 697 696 694 698 703 702 703 703 704 709 714 713 714
802 798 794 789 785 780 775 769 767 762 758 754 750 745 736 731 727 723 719 716 714 711 707 704 701 699 696 695 693 693 693 691 689 691 699 698 698 701 704 707 709 713 714
800 796 791 787 781 776 771 765 758 753 751 746 741 736 731 725 720 715 711 708 705 703 699 696 692 691 690 689 688 687 687 687 684 685 690 693 694 698 702 705 709 711 712
797 793 788 783 779 773 769 763 757 750 743 738 735 730 725 720 715 710 706 702 698 693 689 685 685 684 683 681 681 680 679 680 679 680 684 689 688 693 698 703 708 710 714
793 788 784 779 774 769 765 759 753 747 741 735 728 722 718 713 708 703 698 694 688 684 681 678 677 676 674 673 672 673 672 673 673 675 679 682 686 692 697 699 705 713 715
788 784 780 774 769 764 760 754 748 742 736 730 724 718 712 707 701 696 692 687 683 678 673 669 667 666 666 666 666 666 665 666 669 670 672 680 687 691 694 698 705 711 716
785 780 775 770 765 760 755 750 744 738 731 725 719 714 709 703 697 691 686 681 676 671 667 663 661 659 659 659 659 659 659 660 662 666 672 679 684 688 693 699 706 711 717
781 776 771 766 761 756 751 746 739 733 727 720 713 708 703 697 692 686 680 675 669 664 659 655 652 651 651 651 652 652 653 655 658 663 668 675 682 687 694 700 705 712 719
777 772 768 763 758 752 746 741 735 729 722 716 710 703 697 692 685 679 673 667 661 656 651 647 644 644 644 645 645 646 647 650 654 659 667 674 680 686 694 700 706 713 720
773 769 764 759 754 749 743 737 731 725 719 712 706 700 694 687 681 675 668 661 655 649 644 640 638 638 639 639 640 642 645 648 653 659 666 672 679 687 694 701 707 715 721
769 765 761 756 751 746 740 734 728 722 716 710 703 697 691 684 678 671 665 658 652 646 640 636 634 634 634 636 638 641 644 649 654 661 669 674 680 689 695 702 709 717 724
766 762 757 753 748 743 737 731 725 719 713 707 701 695 689 682 676 670 663 657 651 645 640 637 634 634 635 637 639 642 646 651 657 665 671 677 684 692 698 705 712 720 727
Wind_Speed
30 28 30 31 31 30 27 30 33 31 26 28 30 25 15 6 11 24 28 30 31 30 30 32 34 33 32 33 32 31 29 26 14 24 24 18 14 19 26 25 25 24 22
27 28 27 29 30 33 33 31 29 28 28 24 26 26 27 23 15 9 8 3 11 26 32 34 34 31 33 33 31 31 29 26 23 19 20 22 22 23 24 23 20 17 17
27 27 27 28 27 28 30 29 26 24 26 25 23 21 23 21 18 21 17 16 11 15 8 10 10 18 28 29 28 28 29 26 26 20 20 24 23 22 19 19 19 19 20
22 24 25 26 26 21 24 24 26 25 21 22 20 21 19 20 20 22 22 21 15 16 17 16 16 16 17 16 15 22 26 27 26 20 19 21 23 23 22 20 20 18 19
16 15 18 21 22 22 27 22 24 23 24 23 20 17 15 14 19 19 21 20 21 18 14 15 18 13 17 17 16 17 16 18 23 21 21 18 15 13 15 17 16 16 16
16 13 13 17 18 19 23 21 24 26 25 23 21 20 22 19 16 18 22 23 22 24 20 14 15 13 14 15 16 15 15 20 17 16 17 13 18 18 18 20 15 8 3
17 18 20 16 15 17 15 17 21 28 22 20 18 20 17 18 17 19 21 23 23 24 22 18 18 15 12 13 13 13 13 13 14 16 18 16 10 7 16 19 21 14 9
19 20 22 24 23 23 21 18 23 21 20 19 21 19 19 19 19 24 23 23 22 21 22 23 20 19 16 20 18 14 16 13 13 12 14 15 16 18 18 16 21 14 7
21 20 21 22 23 23 24 25 23 22 22 22 19 21 21 21 20 20 21 21 20 19 20 19 19 21 18 20 19 17 17 16 15 15 15 17 20 17 15 16 15 13 4
21 22 22 22 21 21 23 23 23 23 24 25 26 22 24 24 22 22 23 23 21 20 18 18 17 18 14 17 16 15 15 15 16 16 15 11 11 13 9 11 21 19 6
21 20 20 21 21 20 20 21 25 25 24 23 23 21 19 20 21 21 23 22 20 20 20 20 22 24 17 15 20 20 19 19 19 17 14 14 16 13 10 13 15 14 16
22 24 25 23 23 20 19 24 25 25 25 25 25 25 22 20 20 20 20 21 21 23 21 24 26 26 27 26 26 26 27 26 21 16 13 12 13 11 8 9 10 13 15
22 23 25 26 20 22 26 25 25 24 22 24 24 24 25 24 25 24 23 23 21 19 21 23 25 26 25 23 26 21 17 18 19 14 11 12 10 10 7 6 6 6 7
22 23 25 23 26 26 25 25 25 24 23 22 22 23 25 26 24 25 24 24 25 26 25 25 26 31 33 30 28 26 23 21 20 18 14 10 8 8 9 7 8 10 12
21 23 23 23 24 25 25 25 26 28 26 29 28 27 28 27 28 31 34 34 32 30 33 28 23 21 21 22 21 22 21 17 16 15 15 12 10 10 10 9 12 14 9
22 22 23 25 27 25 24 26 25 25 28 29 30 32 36 36 38 38 37 37 36 34 30 24 23 22 20 20 19 20 23 19 18 15 15 14 14 15 14 14 16 14 16
23 23 24 26 24 25 24 24 25 27 28 26 27 30 33 35 37 37 36 34 31 30 26 24 23 22 23 21 21 20 22 23 22 19 18 17 16 16 19 17 18 19 19
22 23 24 22 26 24 24 25 25 26 25 26 28 30 30 31 31 30 30 29 24 20 24 24 23 23 23 22 21 22 22 22 20 19 19 19 20 21 18 18 19 20 22
24 23 25 27 26 25 26 25 25 25 25 26 29 29 26 27 28 27 29 26 24 23 22 23 23 21 20 22 25 23 23 24 22 21 20 20 22 23 19 21 21 22 23
22 25 29 25 26 22 24 25 24 24 25 26 26 27 26 25 24 24 23 24 23 25 26 25 24 22 22 23 25 24 23 25 23 22 22 23 24 23 22 24 24 25 19
22 26 26 24 23 23 23 24 25 25 25 26 27 26 28 27 26 23 23 23 25 25 27 26 25 24 22 23 24 22 24 24 23 24 25 24 24 23 24 26 26 22 26
22 26 25 24 23 24 24 26 25 26 26 27 27 27 28 25 24 25 25 26 26 28 29 28 26 22 22 19 22 22 26 23 24 25 26 26 26 26 26 26 25 27 27
25 24 24 24 23 25 24 25 25 26 26 27 27 27 26 25 26 26 27 28 26 27 28 25 24 23 21 20 20 23 23 25 26 27 30 29 28 28 28 28 30 29 26
24 23 23 24 22 25 24 26 26 26 26 26 26 26 26 27 27 28 27 28 28 27 25 18 16 17 18 17 17 19 21 22 24 27 31 31 31 30 30 29 30 29 30
22 23 23 23 23 24 24 25 25 25 25 25 25 25 26 26 26 26 26 27 27 25 21 14 8 9 10 12 14 16 17 21 26 29 32 34 34 33 32 31 33 30 32
22 22 23 23 23 23 24 25 25 25 25 25 25 24 25 25 25 25 24 24 23 19 15 10 5 2 6 9 12 15 19 25 29 33 35 37 35 31 32 34 33 31 31
Wind_Direction
16 17 19 21 26 32 30 26 29 28 34 34 23 11 13 23 258 247 237 238 238 237 238 239 237 238 236 240 241 240 233 229 238 248 253 250 256 261 263 264 268 269 279
10 13 14 15 14 15 19 24 23 24 14 33 28 14 11 14 8 19 5 346 269 239 238 239 240 239 238 238 239 238 238 235 232 246 249 258 274 275 261 255 256 261 277
5 6 6 10 11 9 7 8 11 13 9 12 32 20 8 4 9 16 12 354 2 335 311 304 282 260 253 249 245 244 243 242 241 240 250 264 260 251 242 241 252 270 282
355 356 1 0 2 2 3 2 1 5 359 358 5 4 16 1 358 356 2 353 347 343 347 331 321 316 305 299 278 261 254 252 253 245 252 257 253 246 246 252 257 265 266
347 356 359 355 356 356 357 358 354 352 352 351 350 344 352 352 351 353 348 344 358 327 326 329 314 330 310 311 300 292 282 270 254 248 251 241 226 225 231 254 247 255 254
360 344 3 351 352 346 349 346 349 346 345 343 344 344 337 338 335 342 336 337 341 320 320 317 317 314 308 309 319 302 297 292 288 295 269 258 256 249 253 247 234 210 241
350 3 359 350 347 336 335 336 346 343 342 337 338 342 336 338 332 336 329 325 321 317 320 314 309 307 312 314 284 290 298 297 301 291 288 290 330 308 276 250 240 231 225
10 1 353 346 345 343 352 352 345 343 335 332 335 334 334 336 336 336 333 325 320 312 313 304 301 301 300 292 293 300 301 296 290 291 288 291 293 298 297 289 273 240 213
354 351 345 340 338 338 342 342 341 336 333 333 332 332 329 323 335 334 335 327 318 311 309 308 306 300 298 292 295 306 299 287 288 291 287 292 292 283 283 288 245 184 178
341 338 335 335 334 336 336 336 336 336 332 328 323 328 327 326 327 324 324 331 325 321 316 320 320 310 315 306 293 294 297 296 299 310 313 310 310 297 304 265 248 213 167
337 332 329 326 331 331 329 331 331 327 324 322 319 316 314 313 315 314 313 316 311 310 306 303 295 293 307 317 325 305 293 295 291 296 302 324 324 316 300 243 249 242 225
332 325 325 331 328 328 335 329 323 323 319 317 317 316 316 317 310 309 311 304 300 295 300 300 301 307 304 299 286 289 297 298 279 284 308 314 301 289 272 262 253 247 241
325 326 330 327 333 338 333 323 321 319 312 313 316 315 317 320 316 314 311 308 305 307 308 308 301 296 294 296 296 298 283 283 285 271 268 283 279 269 252 225 216 216 231
324 325 323 329 330 325 322 319 318 315 312 311 309 308 308 309 307 305 304 303 302 301 299 296 295 295 290 289 289 282 277 271 265 264 264 258 237 217 208 208 166 155 139
324 320 321 321 321 318 315 314 307 306 305 305 304 306 307 303 301 299 297 296 295 295 297 293 292 291 285 283 281 279 272 268 243 242 236 213 201 193 188 199 178 159 143
323 319 318 320 316 315 314 312 309 303 312 309 307 304 300 294 297 299 301 300 298 297 288 284 285 284 277 277 273 275 265 257 243 233 227 210 191 184 182 177 178 160 130
320 318 319 318 318 319 315 314 313 314 310 306 307 305 303 301 302 304 304 301 299 295 272 270 271 275 277 270 266 264 261 256 241 219 212 201 186 179 167 157 155 138 128
321 320 318 316 318 313 314 311 310 309 310 312 313 307 305 305 305 306 306 303 290 275 262 266 266 262 261 261 261 258 257 241 220 210 202 195 179 168 157 152 151 142 140
321 318 319 318 317 315 316 311 307 306 306 308 310 310 308 308 307 305 305 293 288 284 276 267 264 257 256 246 253 255 252 225 216 202 190 180 173 166 160 151 149 150 143
319 320 323 313 315 308 318 311 309 308 309 308 307 306 309 312 311 307 299 285 280 285 282 275 274 263 253 253 251 255 239 218 207 189 178 175 170 165 154 149 152 151 149
316 318 315 313 312 309 313 313 310 308 307 307 305 308 313 313 308 304 304 300 293 288 285 277 272 264 256 254 248 247 225 209 194 179 171 167 162 153 150 149 149 137 131
315 315 314 311 313 313 310 314 311 309 308 308 312 315 317 314 310 309 306 303 298 295 292 284 275 259 263 251 249 233 210 196 181 171 162 161 156 150 148 147 136 133 132
318 314 313 314 314 315 312 314 312 310 311 314 314 315 317 315 314 312 310 310 306 305 306 295 277 267 270 259 253 230 207 194 186 177 163 157 153 148 147 139 137 136 134
315 312 313 313 315 318 315 316 315 314 315 315 315 317 316 316 316 315 316 318 321 317 318 306 278 264 268 266 245 221 213 200 186 177 164 153 147 145 143 139 138 137 132
310 314 318 318 318 317 317 317 317 318 319 319 318 319 320 320 319 319 323 325 328 329 329 323 297 273 261 237 216 207 200 183 172 166 157 148 144 144 141 137 136 134 134
312 317 319 318 319 321 320 320 320 322 322 322 322 323 323 322 326 330 330 333 338 339 339 339 330 263 202 192 183 171 165 163 159 157 149 145 140 138 137 136 135 135 136